TimeCST,TemperatureF,Dew PointF,Humidity,Sea Level PressureIn,VisibilityMPH,Wind Direction,Wind SpeedMPH,Gust SpeedMPH,PrecipitationIn,Events,Conditions,WindDirDegrees,DateUTC
12:55 AM,33.3,25.2,72,30.34,10.0,North,6.9,-,N/A,,Clear,360,2012-11-12 06:55:00
1:55 AM,34.0,23.0,64,30.36,10.0,NNW,3.5,-,N/A,,Clear,340,2012-11-12 07:55:00
2:55 AM,33.3,22.3,64,30.37,10.0,North,8.1,-,N/A,,Clear,350,2012-11-12 08:55:00
3:55 AM,33.8,20.8,59,30.40,10.0,NNW,4.6,-,N/A,,Clear,340,2012-11-12 09:55:00
4:55 AM,32.0,23.2,70,30.43,10.0,Calm,Calm,-,N/A,,Clear,0,2012-11-12 10:55:00
5:55 AM,30.7,23.7,75,30.45,10.0,Calm,Calm,-,N/A,,Clear,0,2012-11-12 11:55:00
6:55 AM,28.9,24.1,82,30.46,10.0,Calm,Calm,-,N/A,,Clear,0,2012-11-12 12:55:00
7:55 AM,31.5,24.8,76,30.48,10.0,Calm,Calm,-,N/A,,Clear,0,2012-11-12 13:55:00
8:55 AM,38.3,25.0,59,30.50,10.0,Calm,Calm,-,N/A,,Clear,0,2012-11-12 14:55:00
9:55 AM,42.4,20.8,42,30.51,10.0,Calm,Calm,-,N/A,,Clear,0,2012-11-12 15:55:00
10:55 AM,44.8,19.2,36,30.53,10.0,Calm,Calm,-,N/A,,Clear,0,2012-11-12 16:55:00
11:55 AM,47.5,22.1,37,30.52,10.0,WSW,5.8,-,N/A,,Clear,240,2012-11-12 17:55:00
12:55 PM,49.5,21.7,34,30.49,10.0,Variable,4.6,-,N/A,,Clear,0,2012-11-12 18:55:00
1:55 PM,50.9,20.7,30,30.47,10.0,Variable,4.6,-,N/A,,Clear,0,2012-11-12 19:55:00
2:55 PM,52.7,21.4,29,30.45,10.0,SSW,4.6,-,N/A,,Clear,200,2012-11-12 20:55:00
3:55 PM,53.1,22.8,31,30.45,10.0,South,6.9,-,N/A,,Clear,190,2012-11-12 21:55:00
4:55 PM,51.3,21.4,31,30.45,10.0,South,5.8,-,N/A,,Clear,180,2012-11-12 22:55:00
5:55 PM,44.6,27.1,50,30.46,10.0,South,5.8,-,N/A,,Clear,170,2012-11-12 23:55:00
6:55 PM,43.7,25.9,50,30.47,10.0,South,5.8,-,N/A,,Clear,180,2012-11-13 00:55:00
7:55 PM,41.9,26.2,54,30.48,10.0,South,4.6,-,N/A,,Clear,180,2012-11-13 01:55:00
8:55 PM,39.2,26.8,61,30.49,10.0,South,6.9,-,N/A,,Clear,180,2012-11-13 02:55:00
9:55 PM,39.6,26.2,59,30.50,10.0,South,4.6,-,N/A,,Clear,180,2012-11-13 03:55:00
10:55 PM,39.4,25.3,57,30.49,10.0,Calm,Calm,-,N/A,,Clear,0,2012-11-13 04:55:00
11:55 PM,37.2,26.1,64,30.49,10.0,Calm,Calm,-,N/A,,Clear,0,2012-11-13 05:55:00